Location: Seagrape Drive
(25.8948°N, 81.3265°W)
Time: 22:58:36
(UTC-05:00)

Hubble Space Telescope - Visible Passes

Search period start: 23 February 2018 00:00
Search period end: 05 March 2018 00:00
Orbit: 537 x 541 km, 28.5° (Epoch: 23 February)

Date Brightness Start Highest point End Pass type
(mag) Time Alt. Az. Time Alt. Az. Time Alt. Az.
23 Feb 1.0 05:12:56 62° NNE 05:12:56 62° NNE 05:16:46 10° ENE visible
24 Feb 1.5 05:03:15 49° NE 05:03:15 49° NE 05:06:32 10° ENE visible
25 Feb 2.0 04:53:32 38° ENE 04:53:32 38° ENE 04:56:18 10° E visible
26 Feb 2.6 04:43:51 30° ENE 04:43:51 30° ENE 04:46:05 10° E visible
26 Feb 0.8 06:19:12 10° WNW 06:23:20 86° SSW 06:27:28 10° ESE visible
27 Feb 3.0 04:34:10 23° ENE 04:34:10 23° ENE 04:35:53 10° E visible
27 Feb 0.8 06:09:32 14° W 06:13:05 72° SSW 06:17:12 10° ESE visible
28 Feb 3.5 04:24:32 18° E 04:24:32 18° E 04:25:40 10° E visible
28 Feb 1.0 05:59:54 18° W 06:02:48 58° SSW 06:06:52 10° ESE visible
01 Mar 3.8 04:14:57 13° E 04:14:57 13° E 04:15:28 10° E visible
01 Mar 1.2 05:50:18 23° W 05:52:31 46° SSW 05:56:29 10° SE visible
02 Mar 1.6 05:40:47 27° WSW 05:42:13 36° SSW 05:46:01 10° SE visible
03 Mar 1.8 05:31:18 27° SW 05:31:53 28° SSW 05:35:28 10° SE visible
04 Mar 2.3 05:21:54 22° SSW 05:21:54 22° SSW 05:24:48 10° SSE visible
